This is the latest recevied weather packets stored in our database for station/object WW4HG. If no packets are shown the sender has not sent any weather packets the latest 1 day(s).
| Time | Temp. | Humidity | Pressure | Rain* | Wind** | Luminosity | Snow |
|---|---|---|---|---|---|---|---|
| 1778009720 | 23.89° C | 38% | 1018 hPa | 0 mm | 1.79 m/s, 151° | 41 W/m² | - |
| 1778009417 | 23.89° C | 38% | 1018 hPa | 0 mm | 1.79 m/s, 151° | 43 W/m² | - |
| 1778009115 | 23.89° C | 38% | 1018.4 hPa | 0 mm | 0 m/s | 43 W/m² | - |
| 1778008813 | 23.33° C | 38% | 1018 hPa | 0 mm | 1.34 m/s, 120° | 44 W/m² | - |
| 1778008510 | 23.33° C | 39% | 1018.4 hPa | 0 mm | 0 m/s | 92 W/m² | - |
| 1778008208 | 23.89° C | 39% | 1018.4 hPa | 0 mm | 1.79 m/s, 154° | 62 W/m² | - |
| 1778007903 | 23.33° C | 39% | 1018.4 hPa | 0 mm | 0 m/s | 53 W/m² | - |
| 1778007599 | 23.33° C | 39% | 1018.4 hPa | 0 mm | 0 m/s | 46 W/m² | - |
| 1778007296 | 23.89° C | 39% | 1018.4 hPa | 0 mm | 1.79 m/s, 48° | 165 W/m² | - |
| 1778006992 | 23.89° C | 39% | 1018.4 hPa | 0 mm | 2.24 m/s, 84° | 356 W/m² | - |
| 1778006689 | 23.89° C | 39% | 1018.4 hPa | 0 mm | 1.34 m/s, 145° | 411 W/m² | - |
| 1778006385 | 23.89° C | 39% | 1018 hPa | 0 mm | 1.34 m/s, 149° | 409 W/m² | - |
| 1778006083 | 23.89° C | 39% | 1018.4 hPa | 0 mm | 1.79 m/s, 162° | 415 W/m² | - |
| 1778005779 | 23.89° C | 40% | 1018.4 hPa | 0 mm | 2.24 m/s, 119° | 413 W/m² | - |
| 1778005477 | 23.89° C | 39% | 1018.4 hPa | 0 mm | 0 m/s | 420 W/m² | - |
| 1778005172 | 23.89° C | 39% | 1018 hPa | 0 mm | 0 m/s | 417 W/m² | - |
| 1778004870 | 23.89° C | 39% | 1018 hPa | 0 mm | 0.45 m/s, 109° | 419 W/m² | - |
| 1778004567 | 23.89° C | 40% | 1018.4 hPa | 0 mm | 3.58 m/s, 49° | 417 W/m² | - |
| 1778004263 | 23.89° C | 40% | 1018.4 hPa | 0 mm | 3.13 m/s, 74° | 421 W/m² | - |
| 1778003960 | 23.89° C | 39% | 1018.4 hPa | 0 mm | 0.89 m/s, 123° | 425 W/m² | - |
| 1778003656 | 23.89° C | 39% | 1018.4 hPa | 0 mm | 0.89 m/s, 341° | 443 W/m² | - |
| 1778003352 | 23.89° C | 39% | 1018 hPa | 0 mm | 0.45 m/s, 109° | 423 W/m² | - |
| 1778003050 | 23.89° C | 39% | 1018.4 hPa | 0 mm | 0 m/s | 420 W/m² | - |
| 1778002746 | 23.89° C | 38% | 1018.4 hPa | 0 mm | 0 m/s | 422 W/m² | - |
| 1778002442 | 23.89° C | 39% | 1018.4 hPa | 0 mm | 0 m/s | 407 W/m² | - |
* Rain latest hour (hover to see other rain measurements)
** Current wind speed in m/s (hover to see current wind gust speed)